Terminal Aerodrome Forecast
Issued by NWS

Home | Current Version | Previous Version | Text Only | Print | Product List | Glossary On
Versions: 1 2 3 4 5 6 7 8 9 10 11 12 13 14 15 16 17 18 19 20 21 22 23 24 25 26 27 28 29 30 31 32 33 34 35 36 37 38 39 40 41 42 43 44 45 46 47 48 49 50
000
FTUS43 KLOT 160619 AAA
TAFORD
TAF AMD
KORD 160619Z 1606/1712 04008KT 4SM -SHRA BR OVC006
      TEMPO 1606/1608 2SM -RA BR BKN004
     FM160800 08005KT 4SM BR OVC004
     FM161500 05006KT 6SM BR OVC007
     FM161700 06007KT P6SM OVC009
     FM161900 04010KT P6SM OVC015=

USA.gov is the U.S. government's official web portal to all federal, state and local government web resources and services.